Wind_Speed
38 35 34 38 37 34 30 33 40 47 45 53 47 60 53 43 34 31 27 23 22 31 25 29 33 29 15 14 24 23 26 20 12 20 13 9 14 15 15 12 7 8 6 7
41 37 34 34 37 37 33 36 39 44 56 48 39 53 54 49 38 34 28 25 23 24 16 18 24 29 23 24 23 21 23 15 9 10 16 20 19 24 15 17 23 16 4 3
37 44 38 36 35 36 36 39 35 50 46 46 56 54 50 38 38 40 29 29 28 27 29 24 18 20 27 26 24 24 21 19 19 18 16 6 12 15 20 23 19 16 21 25
36 40 45 40 38 41 37 42 36 44 34 58 42 47 37 45 47 33 22 23 30 31 29 26 24 19 28 26 24 24 27 24 25 23 23 14 12 12 15 23 27 22 19 17
37 39 45 47 43 46 43 36 41 42 49 35 54 40 42 37 38 36 41 28 23 25 31 32 30 34 33 35 30 24 24 22 24 23 20 21 20 19 18 18 24 25 20 14
34 36 45 41 44 48 50 39 35 34 45 37 41 47 44 48 32 30 21 33 24 26 24 25 19 29 28 29 27 25 24 22 16 13 17 19 22 25 24 22 22 21 23 20
35 35 43 41 44 50 52 44 37 29 29 40 52 42 37 42 43 34 22 25 33 26 27 26 19 22 18 22 20 18 18 18 15 6 7 8 20 16 15 23 19 23 18 18
37 35 37 34 41 46 46 49 35 34 19 29 31 33 26 33 34 32 37 32 25 31 31 23 15 13 16 17 16 16 19 22 10 7 12 10 2 13 18 17 13 15 16 19
37 36 34 35 44 45 47 40 40 25 31 29 30 31 22 29 34 30 32 31 36 31 26 21 11 11 12 13 9 15 14 16 21 10 6 4 3 19 21 16 14 15 19 22
41 39 36 37 40 44 44 39 34 23 31 24 27 26 31 31 31 35 31 27 27 26 31 25 15 10 22 12 18 25 23 23 21 22 12 6 10 14 14 10 11 14 13 14
47 43 38 40 42 42 45 39 38 25 27 13 21 24 37 34 32 33 33 31 31 34 31 25 15 12 21 13 19 21 24 19 22 19 7 9 14 12 14 12 10 10 13 17
48 46 42 45 45 46 44 39 36 27 22 16 17 28 22 24 26 35 35 29 41 30 23 17 18 10 19 16 17 17 21 24 14 12 13 12 16 16 15 11 11 13 16 16
47 48 45 49 50 47 45 40 32 35 30 13 23 24 25 24 31 27 34 35 29 29 26 22 17 17 16 18 13 16 18 14 20 16 11 16 19 17 15 15 16 17 17 17
50 49 49 49 50 49 45 38 38 20 30 4 13 23 23 32 37 29 18 13 27 28 26 22 21 17 12 16 12 12 13 11 18 25 16 15 17 19 15 14 14 15 16 14
48 50 48 47 47 48 41 34 35 28 23 15 20 26 25 23 27 21 21 18 24 25 24 21 20 17 15 12 10 15 12 11 14 16 18 21 21 21 19 14 13 13 13 14
47 47 45 44 44 44 39 34 31 32 33 26 26 25 27 28 24 25 18 16 15 21 22 19 21 17 15 14 8 2 11 8 9 13 13 13 13 19 17 13 11 11 11 11
44 44 43 45 46 46 44 35 39 33 24 14 21 19 25 19 18 20 19 17 20 17 20 18 18 17 13 11 10 14 13 13 14 17 17 16 16 16 13 9 9 11 12 11
44 45 45 44 43 41 38 30 25 29 26 32 13 28 27 23 25 29 30 29 22 20 18 15 13 17 13 8 12 13 14 13 12 9 9 12 8 4 6 7 10 12 11 12
47 48 45 40 41 36 32 33 33 31 17 15 21 34 35 28 29 29 27 25 20 15 16 14 10 12 5 10 13 14 15 8 8 8 9 8 8 8 10 10 12 14 12 12
53 53 47 40 42 35 44 38 30 18 16 9 29 37 32 34 31 26 20 18 13 14 14 14 11 10 15 14 11 12 9 6 6 7 8 10 10 9 9 10 13 13 12 12
56 55 41 44 48 46 32 24 10 9 8 13 33 35 34 31 32 27 12 12 9 7 10 12 10 13 13 13 13 11 6 6 6 6 8 7 6 8 11 13 11 10 12 14
55 52 52 51 40 24 8 14 13 10 10 25 32 33 31 31 26 14 11 8 8 5 16 10 11 13 12 10 8 8 7 7 5 6 6 6 6 6 5 5 7 10 13 17
49 53 41 26 9 9 12 13 16 13 22 27 32 33 32 29 19 11 7 6 5 11 11 9 10 11 9 8 9 8 7 6 5 5 5 6 6 5 6 9 11 14 17 20
49 26 16 9 8 8 15 18 21 20 25 31 35 36 28 26 17 8 6 8 9 7 9 10 10 11 9 9 8 7 6 6 6 6 7 7 7 7 9 12 15 17 19 20
23 14 6 9 19 23 24 23 19 25 29 34 36 28 29 22 8 6 7 9 5 7 8 9 9 8 10 8 5 5 5 4 5 5 6 6 8 10 12 15 16 18 19 20
15 10 24 27 24 24 23 21 28 31 35 31 25 17 14 7 8 6 5 10 5 11 13 9 9 11 9 5 4 5 4 4 5 5 7 9 11 12 13 15 17 17 17 16
15 28 31 28 29 29 30 31 32 31 30 25 16 8 6 11 7 8 11 10 7 7 9 11 11 9 6 5 3 4 5 6 6 7 9 10 11 13 14 16 16 14 15 16
Wind_Direction
228 230 228 233 231 225 216 222 219 221 227 217 220 221 223 230 231 209 225 214 213 213 199 208 208 208 191 202 216 205 208 212 212 234 256 239 237 236 243 219 232 218 267 228
228 224 225 233 225 215 207 214 223 226 225 215 219 219 233 230 227 218 232 210 217 206 200 211 209 217 215 233 224 225 211 216 203 234 237 237 230 234 224 242 241 243 232 246
228 222 221 223 222 205 201 213 215 222 227 230 229 234 227 218 226 225 232 232 230 225 221 223 223 204 207 220 220 221 224 206 206 209 192 236 251 254 240 237 232 234 249 259
231 224 219 215 216 200 207 216 216 222 219 220 228 219 219 223 222 210 211 223 220 220 217 220 217 206 215 214 216 210 210 213 211 221 231 246 266 263 238 231 243 233 256 253
228 227 219 214 208 202 207 215 216 222 224 227 223 222 220 215 221 226 222 230 216 215 223 219 214 215 219 221 213 205 216 231 230 251 254 259 256 250 242 242 245 255 251 255
228 224 217 210 200 206 215 212 216 222 222 222 220 226 236 233 214 217 219 223 211 208 218 215 230 215 226 225 228 224 225 217 223 249 260 264 257 241 242 247 249 255 259 266
224 222 219 205 205 207 213 210 218 212 222 227 232 230 237 225 230 229 198 202 205 195 208 212 208 209 219 230 216 211 222 224 215 238 234 236 241 257 244 244 261 250 248 251
221 216 212 199 202 206 212 215 214 222 233 227 218 225 238 216 223 219 194 197 199 204 198 188 186 187 205 220 242 237 227 218 209 208 231 253 237 211 223 230 232 237 246 252
218 215 210 204 202 204 212 218 211 240 235 214 219 209 207 203 210 204 207 200 208 214 213 179 182 187 187 192 195 216 194 200 215 206 224 234 251 228 238 240 239 245 253 264
215 211 206 208 201 200 209 211 204 227 233 230 183 199 203 209 204 210 215 198 187 186 188 187 190 202 193 186 180 189 198 209 219 230 240 248 249 232 243 228 251 258 269 275
209 207 205 206 201 199 206 208 203 215 229 210 215 191 200 201 212 207 177 166 182 191 191 186 181 193 196 193 206 204 199 198 216 224 238 252 237 239 228 250 267 268 279 286
204 203 204 202 201 197 201 208 205 207 227 220 207 213 192 204 217 204 195 190 182 181 183 193 189 185 184 200 182 206 204 209 190 213 228 237 209 234 262 273 276 291 292 297
199 203 202 198 196 195 200 204 197 203 213 216 183 203 203 207 192 195 201 196 189 187 191 180 186 195 183 189 201 198 208 217 210 209 207 223 233 245 265 276 283 289 295 297
190 194 192 193 195 192 196 198 196 189 203 232 198 199 194 188 189 189 195 202 192 192 189 189 187 185 198 205 222 224 227 224 217 223 230 222 238 249 271 277 278 286 291 292
186 188 189 190 191 191 195 195 193 223 197 207 186 176 167 169 163 163 172 168 184 186 182 186 183 185 177 171 179 207 226 231 225 241 241 248 255 266 271 273 272 283 293 293
179 181 182 183 182 183 184 192 190 191 214 183 153 160 157 145 157 164 159 167 181 184 190 190 193 193 196 187 178 186 196 204 205 233 240 247 254 261 262 258 274 281 292 293
170 171 172 168 173 178 176 184 195 197 174 170 137 140 149 134 160 169 177 186 173 183 174 187 188 191 189 168 153 182 201 225 240 255 261 258 269 251 254 263 275 294 297 292
165 162 159 165 173 174 180 193 191 193 218 168 134 137 142 160 164 157 161 162 173 178 179 186 181 188 174 163 168 193 225 253 260 265 262 263 263 249 265 277 286 295 299 297
149 146 151 161 170 175 175 168 153 162 166 164 162 156 151 161 165 163 169 177 174 176 175 173 171 169 169 177 197 230 253 260 276 271 268 238 241 261 271 281 303 307 296 297
142 143 154 160 160 159 151 152 150 146 163 144 171 161 155 164 168 166 162 168 159 147 156 165 161 153 173 185 204 217 234 263 278 276 269 255 248 268 286 307 302 291 288 293
146 150 156 158 156 153 151 149 134 144 164 165 175 179 171 173 175 159 151 148 147 154 181 183 178 191 195 211 232 247 267 280 285 294 300 290 273 280 295 300 296 286 290 301
154 150 140 143 147 143 123 163 159 174 169 174 174 179 183 165 171 153 141 146 149 163 171 168 175 203 210 225 214 214 242 269 282 283 281 290 286 290 302 312 301 301 302 304
152 145 133 142 139 166 168 172 173 167 172 172 168 165 173 165 156 155 140 150 157 146 168 172 197 199 210 215 212 230 242 238 248 256 267 283 274 275 287 297 298 298 304 307
138 130 132 151 166 172 171 171 176 170 165 158 162 160 159 157 154 147 139 141 148 155 164 196 188 193 204 201 207 221 244 246 258 249 257 261 262 270 282 293 303 309 312 313
125 124 155 147 136 141 155 162 176 159 162 161 158 158 158 152 137 142 131 157 153 169 187 197 201 190 185 198 201 214 242 249 241 244 257 260 268 283 295 302 307 310 311 315
114 117 119 131 134 136 143 150 150 154 157 151 151 135 157 149 141 145 142 152 157 191 195 184 182 175 184 197 208 242 250 250 252 255 263 274 285 293 301 305 307 311 314 319
116 126 134 141 138 138 141 144 146 154 154 148 141 133 152 138 157 144 159 177 156 166 171 181 181 182 198 206 234 254 258 265 268 272 281 289 295 302 305 307 310 314 320 323
Height
2941 2948 2955 2961 2969 2977 2982 2988 2992 2998 3004 3005 2999 3008 3013 3019 3026 3036 3038 3043 3045 3052 3052 3055 3059 3061 3065 3068 3070 3075 3078 3081 3084 3083 3084 3085 3086 3087 3090 3091 3090 3089 3088 3088
2931 2939 2946 2952 2959 2967 2974 2978 2984 2988 2993 2987 2990 3002 3008 3018 3024 3028 3029 3034 3040 3042 3046 3051 3053 3058 3059 3062 3065 3068 3072 3075 3079 3081 3085 3083 3082 3082 3084 3084 3084 3084 3089 3086
2921 2929 2937 2944 2951 2959 2968 2970 2973 2982 2980 2985 2992 2997 3003 3009 3015 3022 3027 3030 3035 3037 3041 3045 3049 3051 3053 3056 3058 3062 3065 3068 3069 3070 3074 3078 3077 3076 3078 3078 3077 3080 3081 3082
2912 2918 2927 2935 2943 2951 2957 2959 2962 2967 2969 2978 2985 2991 2994 3003 3008 3015 3019 3023 3026 3032 3036 3040 3044 3047 3049 3052 3053 3056 3060 3062 3065 3067 3068 3070 3071 3071 3072 3071 3072 3074 3076 3078
2902 2909 2914 2924 2934 2942 2945 2948 2956 2961 2967 2972 2979 2983 2989 2993 3002 3011 3013 3017 3023 3028 3031 3033 3036 3039 3041 3043 3047 3051 3054 3057 3061 3061 3065 3065 3065 3066 3066 3066 3069 3068 3071 3071
2893 2900 2906 2913 2923 2932 2934 2943 2950 2957 2960 2965 2972 2976 2983 2989 2999 3003 3008 3015 3018 3023 3027 3029 3033 3035 3038 3041 3044 3047 3051 3053 3056 3056 3060 3061 3056 3057 3060 3061 3063 3063 3064 3066
2885 2892 2900 2907 2916 2924 2931 2937 2947 2952 2954 2958 2962 2970 2975 2982 2991 2997 2998 3006 3014 3016 3021 3027 3030 3031 3035 3037 3039 3044 3045 3050 3053 3054 3057 3053 3048 3051 3053 3056 3058 3058 3059 3058
2878 2885 2894 2900 2910 2919 2925 2931 2940 2944 2948 2952 2959 2966 2971 2979 2986 2991 2995 3005 3009 3012 3017 3020 3025 3029 3034 3034 3036 3039 3042 3046 3050 3052 3051 3047 3046 3047 3049 3051 3054 3053 3054 3053
2871 2879 2887 2895 2905 2914 2921 2927 2937 2943 2945 2945 2955 2961 2967 2970 2977 2983 2990 2999 3002 3008 3014 3017 3022 3025 3028 3032 3032 3036 3040 3043 3047 3048 3047 3045 3041 3043 3044 3047 3049 3049 3049 3048
2863 2873 2882 2890 2900 2910 2917 2924 2933 2940 2941 2940 2949 2954 2959 2966 2972 2979 2986 2991 2998 3004 3010 3015 3019 3021 3024 3025 3026 3032 3035 3039 3041 3043 3043 3040 3039 3041 3042 3046 3049 3045 3044 3045
2854 2866 2876 2885 2897 2906 2913 2921 2929 2935 2940 2942 2946 2950 2956 2961 2968 2970 2979 2987 2995 3000 3007 3012 3015 3016 3019 3021 3024 3025 3029 3035 3037 3040 3040 3038 3034 3038 3041 3041 3041 3041 3041 3041
2846 2860 2871 2883 2893 2903 2912 2919 2927 2932 2939 2943 2943 2948 2953 2959 2965 2969 2976 2981 2986 2994 3002 3007 3011 3013 3014 3017 3021 3023 3028 3028 3031 3034 3033 3032 3032 3034 3036 3037 3038 3037 3037 3036
2840 2854 2867 2878 2889 2899 2908 2916 2927 2933 2936 2939 2941 2946 2952 2957 2961 2969 2974 2980 2986 2992 2997 3003 3006 3009 3012 3014 3016 3019 3022 3024 3027 3030 3030 3029 3031 3032 3033 3033 3034 3033 3032 3031
2836 2850 2862 2874 2886 2897 2906 2915 2922 2930 2937 2938 2943 2945 2950 2955 2961 2969 2975 2982 2986 2994 2997 3000 3004 3007 3010 3012 3015 3017 3019 3020 3022 3025 3027 3027 3027 3029 3031 3031 3030 3029 3028 3028
2833 2847 2860 2872 2885 2897 2908 2917 2924 2930 2940 2939 2944 2946 2950 2954 2961 2967 2975 2980 2985 2989 2994 2998 3003 3005 3008 3010 3012 3014 3015 3016 3018 3020 3023 3023 3023 3024 3026 3026 3027 3026 3025 3024
2831 2845 2859 2872 2884 2896 2908 2918 2924 2930 2935 2939 2944 2948 2952 2957 2964 2971 2977 2982 2986 2989 2993 2997 3000 3003 3007 3009 3011 3012 3011 3012 3015 3015 3018 3020 3021 3021 3022 3022 3023 3022 3022 3021
2834 2847 2860 2873 2885 2895 2904 2913 2916 2928 2934 2938 2944 2949 2954 2960 2967 2972 2977 2981 2985 2989 2992 2994 2998 3001 3004 3006 3008 3010 3010 3010 3012 3013 3014 3016 3016 3017 3017 3019 3019 3019 3018 3018
2840 2853 2867 2880 2892 2902 2910 2915 2923 2928 2934 2939 2943 2950 2957 2963 2967 2971 2976 2979 2984 2988 2990 2993 2997 2999 3002 3005 3006 3007 3007 3008 3009 3010 3011 3012 3013 3014 3015 3016 3016 3015 3015 3014
2846 2861 2875 2886 2895 2902 2911 2918 2923 2929 2936 2937 2942 2945 2953 2962 2967 2971 2977 2981 2984 2988 2990 2993 2997 2998 3000 3001 3003 3003 3005 3007 3007 3008 3009 3009 3010 3012 3012 3013 3012 3012 3012 3011
2851 2865 2878 2888 2896 2907 2913 2921 2925 2930 2934 2937 2941 2945 2949 2959 2964 2970 2977 2981 2984 2988 2991 2993 2995 2996 2998 2999 3000 3002 3003 3004 3005 3005 3006 3006 3008 3009 3009 3010 3009 3009 3008 3007
2858 2868 2878 2889 2900 2908 2915 2920 2926 2931 2935 2937 2941 2946 2948 2959 2962 2967 2974 2977 2982 2985 2988 2990 2991 2993 2996 2997 2998 2999 3001 3002 3003 3003 3003 3004 3006 3006 3006 3006 3006 3006 3005 3004
2863 2868 2884 2895 2904 2911 2918 2922 2926 2928 2931 2934 2938 2945 2953 2958 2964 2969 2973 2975 2978 2981 2984 2987 2988 2989 2992 2993 2996 2998 2999 3000 3001 3001 3001 3001 3002 3003 3003 3003 3003 3002 3001 2999
2873 2881 2891 2901 2907 2911 2914 2915 2919 2921 2924 2931 2937 2944 2952 2959 2964 2967 2970 2972 2975 2978 2981 2982 2984 2986 2989 2991 2993 2995 2997 2998 2998 2999 2999 2999 3000 3000 3000 3000 3000 2998 2997 2994
2880 2888 2895 2901 2903 2906 2907 2912 2918 2920 2925 2930 2938 2944 2950 2956 2961 2964 2967 2971 2974 2976 2977 2979 2981 2984 2987 2989 2992 2993 2994 2995 2996 2996 2996 2996 2997 2997 2997 2996 2995 2993 2991 2989
2887 2893 2898 2899 2901 2905 2910 2914 2918 2923 2928 2932 2939 2946 2951 2956 2959 2962 2965 2968 2970 2972 2973 2975 2979 2982 2985 2988 2989 2991 2991 2992 2992 2993 2993 2993 2993 2993 2993 2991 2990 2988 2986 2983
2890 2894 2897 2902 2905 2908 2912 2916 2920 2926 2931 2938 2944 2948 2954 2955 2957 2960 2962 2965 2967 2968 2971 2975 2978 2981 2984 2986 2987 2987 2988 2989 2990 2990 2990 2990 2990 2989 2988 2987 2985 2983 2980 2978
2894 2900 2901 2904 2907 2910 2915 2920 2924 2930 2935 2939 2943 2946 2950 2954 2956 2959 2960 2962 2965 2968 2971 2974 2977 2980 2982 2983 2985 2986 2986 2986 2986 2986 2986 2986 2986 2985 2983 2982 2979 2977 2976 2973